Flag for U.S.A. Weather past 2 weeks in Lexington-Fayette, Kentucky, U.S.A.

Now
65 °F

Clear.


Feels Like: 65 °F
Forecast: 62 / 89 °F
Wind: No wind

Location: Blue Grass Airport

Current Time: Jul 12, 2014 at 5:15:02 AM

Latest Report: Jul 12, 2014 at 4:54 AM


Visibility: 7 mi

Pressure: 30.16 "Hg

Humidity: 87%

Dew point: 61 °F

Location of Lexington-FayetteLocation

Historic Weather in Lexington-Fayette — Graph

°F

Lexington-Fayette temperature yesterday

Maximum temperature yesterday: 89 °F (at 4:54 PM)
Minimum temperature yesterday: 62 °F (at 6:54 AM)
Average temperature yesterday: 76 °F

Past Weeks' High & Low Weather Summary

 TemperatureHumidityPressure
High90 °F (Jul 1, 4:54 PM)93% (Jun 30, 2:54 AM)30.28 "Hg (Jun 30, 2:54 AM)
Low55 °F (Jul 4, 5:54 AM)35% (Jul 5, 6:54 PM)29.79 "Hg (Jul 1, 6:54 PM)
Average76 °F68%30.03 "Hg
* Reported Jun 27 3:54 AM — Jul 12 3:54 AM, Lexington-Fayette, Weather by CustomWeather, © 2014

Note: Actual official high and low records may vary slightly from our data, if they occured in-between our weather recording intervals... More about our weather records

Advertising

Lexington-Fayette weather history for previous 24 hours

 ConditionsComfort  
Time TempWeatherWind HumidityBarometerVisibility
3:54 AM
Jul 12
66 °FClear.No wind84%30.15 "Hg9 mi
2:54 AM68 °FClear.No wind78%30.15 "Hg10 mi
1:54 AM68 °FClear.No wind84%30.16 "Hg10 mi
12:54 AM69 °FClear.No wind81%30.16 "Hg10 mi
11:54 PM
Jul 11
74 °FClear.7 mph64%30.16 "Hg10 mi
10:54 PM74 °FClear.No wind71%30.17 "Hg10 mi
9:54 PM78 °FSunny.No wind56%30.15 "Hg10 mi
8:54 PM79 °FSunny.3 mph60%30.13 "Hg10 mi
7:54 PM85 °FSunny.3 mph48%30.12 "Hg10 mi
6:54 PM87 °FSunny.5 mph37%30.12 "Hg10 mi
5:54 PM88 °FSunny.5 mph38%30.12 "Hg10 mi
4:54 PM89 °FScattered clouds.7 mph36%30.14 "Hg10 mi
3:54 PM86 °FPassing clouds.No wind37%30.16 "Hg10 mi
2:54 PM88 °FPassing clouds.3 mph38%30.16 "Hg10 mi
1:54 PM86 °FScattered clouds.No wind40%30.18 "Hg10 mi
12:54 PM85 °FSunny.5 mph42%30.18 "Hg10 mi
11:54 AM84 °FSunny.8 mph45%30.19 "Hg10 mi
10:54 AM81 °FSunny.No wind53%30.19 "Hg10 mi
9:54 AM78 °FSunny.No wind56%30.19 "Hg10 mi
8:54 AM72 °FSunny.5 mph68%30.19 "Hg10 mi
7:54 AM67 °FSunny.3 mph76%30.18 "Hg10 mi
6:54 AM62 °FClear.6 mph83%30.16 "Hg10 mi
5:54 AM64 °FClear.3 mph78%30.14 "Hg10 mi
Weather by CustomWeather, © 2014

See weather overviewHow to use our weather pages